TimeMST,TemperatureF,Dew PointF,Humidity,Sea Level PressureIn,VisibilityMPH,Wind Direction,Wind SpeedMPH,Gust SpeedMPH,PrecipitationIn,Events,Conditions,WindDirDegrees,DateUTC
12:15 AM,42.8,8.6,25,30.29,10.0,Calm,Calm,-,N/A,,Clear,0,2012-11-14 07:15:00
12:35 AM,41.0,8.6,26,30.29,10.0,WSW,3.5,-,N/A,,Clear,240,2012-11-14 07:35:00
12:55 AM,39.2,10.4,31,30.30,10.0,Calm,Calm,-,N/A,,Clear,0,2012-11-14 07:55:00
1:15 AM,39.2,14.0,36,30.29,10.0,North,-9999.0,-,N/A,,Clear,0,2012-11-14 08:15:00
1:35 AM,39.2,12.2,33,30.29,10.0,North,3.5,-,N/A,,Clear,350,2012-11-14 08:35:00
1:55 AM,39.2,15.8,39,30.29,10.0,Calm,Calm,-,N/A,,Clear,0,2012-11-14 08:55:00
2:15 AM,37.4,12.2,36,30.29,10.0,WSW,3.5,-,N/A,,Clear,240,2012-11-14 09:15:00
2:35 AM,37.4,12.2,36,30.29,10.0,SW,3.5,-,N/A,,Clear,230,2012-11-14 09:35:00
2:55 AM,37.4,10.4,33,30.29,10.0,WSW,3.5,-,N/A,,Clear,240,2012-11-14 09:55:00
3:15 AM,37.4,10.4,33,30.29,10.0,SSW,3.5,-,N/A,,Clear,200,2012-11-14 10:15:00
3:35 AM,37.4,12.2,36,30.30,10.0,Calm,Calm,-,N/A,,Clear,0,2012-11-14 10:35:00
3:55 AM,37.4,15.8,41,30.29,10.0,Calm,Calm,-,N/A,,Clear,0,2012-11-14 10:55:00
4:15 AM,35.6,10.4,35,30.29,10.0,Calm,Calm,-,N/A,,Clear,0,2012-11-14 11:15:00
4:35 AM,35.6,10.4,35,30.29,10.0,Calm,Calm,-,N/A,,Clear,0,2012-11-14 11:35:00
4:55 AM,35.6,12.2,38,30.30,10.0,Calm,Calm,-,N/A,,Clear,0,2012-11-14 11:55:00
5:35 AM,35.6,10.4,35,30.30,10.0,Calm,Calm,-,N/A,,Clear,0,2012-11-14 12:35:00
5:55 AM,35.6,12.2,38,30.30,10.0,Calm,Calm,-,N/A,,Clear,0,2012-11-14 12:55:00
6:15 AM,35.6,10.4,35,30.29,10.0,Calm,Calm,-,N/A,,Clear,0,2012-11-14 13:15:00
6:35 AM,35.6,10.4,35,30.30,10.0,Calm,Calm,-,N/A,,Clear,0,2012-11-14 13:35:00
6:55 AM,33.8,8.6,35,30.30,10.0,Calm,Calm,-,N/A,,Clear,0,2012-11-14 13:55:00
7:15 AM,33.8,12.2,41,30.31,10.0,Calm,Calm,-,N/A,,Clear,0,2012-11-14 14:15:00
7:35 AM,32.0,12.2,44,30.32,10.0,NNW,3.5,-,N/A,,Clear,330,2012-11-14 14:35:00
7:55 AM,32.0,10.4,41,30.32,10.0,Calm,Calm,-,N/A,,Clear,0,2012-11-14 14:55:00
8:15 AM,33.8,12.2,41,30.32,10.0,Calm,Calm,-,N/A,,Clear,0,2012-11-14 15:15:00
8:35 AM,35.6,14.0,41,30.32,10.0,Calm,Calm,-,N/A,,Clear,0,2012-11-14 15:35:00
8:55 AM,37.4,15.8,41,30.32,10.0,Calm,Calm,-,N/A,,Clear,0,2012-11-14 15:55:00
9:15 AM,37.4,15.8,41,30.32,10.0,NW,4.6,-,N/A,,Clear,320,2012-11-14 16:15:00
9:35 AM,39.2,15.8,39,30.32,10.0,Calm,Calm,-,N/A,,Clear,0,2012-11-14 16:35:00
9:55 AM,41.0,15.8,36,30.32,10.0,South,3.5,-,N/A,,Clear,180,2012-11-14 16:55:00
10:15 AM,42.8,15.8,34,30.32,10.0,Calm,Calm,-,N/A,,Clear,0,2012-11-14 17:15:00
10:35 AM,44.6,15.8,31,30.32,10.0,Calm,Calm,-,N/A,,Clear,0,2012-11-14 17:35:00
10:55 AM,44.6,14.0,29,30.31,10.0,Calm,Calm,-,N/A,,Clear,0,2012-11-14 17:55:00
11:15 AM,46.4,15.8,29,30.30,10.0,Calm,Calm,-,N/A,,Clear,0,2012-11-14 18:15:00
11:35 AM,48.2,15.8,27,30.29,10.0,SSW,4.6,-,N/A,,Clear,210,2012-11-14 18:35:00
11:55 AM,51.8,15.8,24,30.27,10.0,Calm,Calm,-,N/A,,Clear,0,2012-11-14 18:55:00
12:15 PM,53.6,15.8,22,30.26,10.0,Calm,Calm,-,N/A,,Clear,0,2012-11-14 19:15:00
12:35 PM,53.6,17.6,24,30.24,10.0,West,4.6,-,N/A,,Clear,260,2012-11-14 19:35:00
12:55 PM,53.6,17.6,24,30.23,10.0,SW,3.5,-,N/A,,Clear,230,2012-11-14 19:55:00
1:15 PM,55.4,17.6,23,30.22,10.0,West,3.5,-,N/A,,Clear,260,2012-11-14 20:15:00
1:35 PM,57.2,17.6,21,30.21,10.0,Calm,Calm,-,N/A,,Clear,0,2012-11-14 20:35:00
1:55 PM,57.2,17.6,21,30.20,10.0,West,5.8,-,N/A,,Clear,270,2012-11-14 20:55:00
2:15 PM,59.0,17.6,20,30.19,10.0,WSW,3.5,-,N/A,,Clear,240,2012-11-14 21:15:00
2:35 PM,59.0,17.6,20,30.18,10.0,Calm,Calm,-,N/A,,Clear,0,2012-11-14 21:35:00
2:55 PM,60.8,17.6,19,30.18,10.0,SW,4.6,-,N/A,,Clear,220,2012-11-14 21:55:00
3:15 PM,60.8,15.8,17,30.17,10.0,SW,4.6,-,N/A,,Clear,220,2012-11-14 22:15:00
3:35 PM,60.8,15.8,17,30.17,10.0,South,3.5,-,N/A,,Clear,190,2012-11-14 22:35:00
3:55 PM,60.8,15.8,17,30.16,10.0,South,5.8,-,N/A,,Clear,180,2012-11-14 22:55:00
4:15 PM,60.8,15.8,17,30.15,10.0,South,4.6,-,N/A,,Clear,190,2012-11-14 23:15:00
4:35 PM,60.8,15.8,17,30.16,10.0,SW,3.5,-,N/A,,Clear,220,2012-11-14 23:35:00
4:55 PM,60.8,15.8,17,30.16,10.0,SSW,3.5,-,N/A,,Clear,210,2012-11-14 23:55:00
5:15 PM,59.0,14.0,17,30.16,10.0,South,3.5,-,N/A,,Clear,190,2012-11-15 00:15:00
5:35 PM,57.2,12.2,17,30.16,10.0,Calm,Calm,-,N/A,,Clear,0,2012-11-15 00:35:00
5:55 PM,55.4,12.2,18,30.16,10.0,SSE,3.5,-,N/A,,Clear,150,2012-11-15 00:55:00
6:15 PM,51.8,12.2,21,30.17,10.0,South,6.9,-,N/A,,Clear,170,2012-11-15 01:15:00
6:35 PM,51.8,12.2,21,30.17,10.0,SSE,5.8,-,N/A,,Clear,150,2012-11-15 01:35:00
6:55 PM,48.2,12.2,24,30.18,10.0,SSE,6.9,-,N/A,,Clear,150,2012-11-15 01:55:00
7:15 PM,48.2,12.2,24,30.18,5.0,SE,8.1,-,N/A,,Clear,130,2012-11-15 02:15:00
7:35 PM,50.0,12.2,22,30.18,7.0,SE,3.5,-,N/A,,Clear,140,2012-11-15 02:35:00
7:55 PM,50.0,12.2,22,30.18,7.0,NNE,4.6,-,N/A,,Clear,20,2012-11-15 02:55:00
8:15 PM,50.0,14.0,24,30.19,10.0,North,3.5,-,N/A,,Clear,350,2012-11-15 03:15:00
8:35 PM,50.0,12.2,22,30.19,10.0,East,4.6,-,N/A,,Clear,80,2012-11-15 03:35:00
8:55 PM,46.4,12.2,25,30.19,10.0,SE,6.9,-,N/A,,Clear,130,2012-11-15 03:55:00
9:15 PM,46.4,10.4,23,30.20,10.0,Calm,Calm,-,N/A,,Clear,0,2012-11-15 04:15:00
9:35 PM,46.4,12.2,25,30.20,10.0,Calm,Calm,-,N/A,,Clear,0,2012-11-15 04:35:00
10:15 PM,46.4,12.2,25,30.22,10.0,Calm,Calm,-,N/A,,Clear,0,2012-11-15 05:15:00
10:35 PM,46.4,12.2,25,30.21,10.0,Calm,Calm,-,N/A,,Clear,0,2012-11-15 05:35:00
10:55 PM,44.6,15.8,31,30.21,10.0,NNE,3.5,-,N/A,,Clear,20,2012-11-15 05:55:00
11:55 PM,42.8,10.4,27,30.22,10.0,WSW,3.5,-,N/A,,Clear,250,2012-11-15 06:55:00